Simultaneous Nadir Overpasses (SNOs) Predictions

Prediction of SNOs between AQUA and GOES-15 Satellite Orbit:

Table of predicted SNOs for the next 14.0 days since TLE Epoch: 10/24/2014
Index Date Time (AQUA) AQUA Lat,Lon GOES-15 Lat,Lon Distance(km) Time Diff (sec)
1 10/25/2014 22:29:14 0.21,-133.44 -0.14,-135.20 199.28 80
2 10/26/2014 10:50:31 0.83,-138.61 0.11,-135.19 388.58 80
3 10/28/2014 10:38:21 0.23,-135.65 0.12,-135.14 58.66 80
4 10/30/2014 10:26:11 -0.41,-132.70 0.12,-135.08 270.80 80
5 10/30/2014 22:47:34 -0.72,-137.89 -0.09,-135.05 322.99 80
6 11/01/2014 22:35:23 -0.08,-134.93 -0.09,-134.99 6.37 80
7 11/03/2014 22:23:12 0.53,-131.97 -0.10,-134.92 335.74 80
8 11/04/2014 10:44:27 0.51,-137.14 0.07,-134.92 251.52 80
9 11/06/2014 10:32:14 -0.10,-134.17 0.07,-134.85 77.66 80




NCC Satellite Simultaneous Nadir Overpasses (SNOs) Prediction Service
